Previsão horária em Cavaillon

Hoje, 25 Julho, Domingo

Tempo Temperatura Precipitação Vento Pressão Humidade
00:00 +24°C° 0 mm 1 m/s 744 mmHg 83%
01:00 +24°C° 0 mm 1 m/s 744 mmHg 82%
02:00 +23°C° 0 mm 2 m/s 744 mmHg 81%
03:00 +23°C° 0 mm 2 m/s 744 mmHg 80%
04:00 +24°C° 0 mm 2 m/s 744 mmHg 77%
05:00 +24°C° 0 mm 2 m/s 744 mmHg 74%
06:00 +24°C° 0 mm 2 m/s 744 mmHg 72%
07:00 +26°C° 0 mm 3 m/s 744 mmHg 62%
08:00 +28°C° 0 mm 4 m/s 744 mmHg 51%
09:00 +30°C° 0 mm 4 m/s 744 mmHg 41%
10:00 +32°C° 0 mm 4 m/s 744 mmHg 34%
11:00 +34°C° 0 mm 4 m/s 744 mmHg 27%
12:00 +35°C° 0 mm 4 m/s 743 mmHg 21%
13:00 +35°C° 0 mm 4 m/s 743 mmHg 21%
14:00 +36°C° 0 mm 4 m/s 743 mmHg 21%
15:00 +36°C° 0 mm 4 m/s 743 mmHg 21%
16:00 +35°C° 0 mm 4 m/s 743 mmHg 23%
17:00 +34°C° 0 mm 4 m/s 743 mmHg 26%
18:00 +33°C° 0 mm 4 m/s 743 mmHg 28%
19:00 +30°C° 0 mm 4 m/s 743 mmHg 33%
20:00 +28°C° 0 mm 3 m/s 744 mmHg 37%
21:00 +26°C° 0 mm 3 m/s 744 mmHg 42%
22:00 +25°C° 0 mm 2 m/s 744 mmHg 46%
23:00 +24°C° 0 mm 2 m/s 744 mmHg 50%

Amanhã, 26 Julho, Segunda-feira

Tempo Temperatura Precipitação Vento Pressão Humidade
00:00 +23°C° 0 mm 2 m/s 744 mmHg 55%
01:00 +23°C° 0 mm 2 m/s 744 mmHg 58%
02:00 +21°C° 0 mm 2 m/s 744 mmHg 61%
03:00 +20°C° 0 mm 2 m/s 744 mmHg 64%
04:00 +21°C° 0 mm 2 m/s 745 mmHg 62%
05:00 +23°C° 0 mm 2 m/s 745 mmHg 59%
06:00 +24°C° 0 mm 2 m/s 745 mmHg 56%
07:00 +26°C° 0 mm 3 m/s 745 mmHg 50%
08:00 +28°C° 0 mm 4 m/s 746 mmHg 44%
09:00 +30°C° 0 mm 4 m/s 746 mmHg 38%
10:00 +32°C° 0 mm 4 m/s 746 mmHg 34%
11:00 +33°C° 0 mm 4 m/s 746 mmHg 30%
12:00 +34°C° 0 mm 4 m/s 746 mmHg 26%
13:00 +35°C° 0 mm 4 m/s 746 mmHg 25%
14:00 +35°C° 0 mm 4 m/s 745 mmHg 25%
15:00 +35°C° 0 mm 4 m/s 745 mmHg 24%
16:00 +34°C° 0 mm 4 m/s 745 mmHg 26%
17:00 +33°C° 0 mm 4 m/s 745 mmHg 28%
18:00 +31°C° 0 mm 3 m/s 746 mmHg 29%
19:00 +29°C° 0 mm 3 m/s 746 mmHg 34%
20:00 +27°C° 0 mm 2 m/s 746 mmHg 39%
21:00 +25°C° 0 mm 2 m/s 747 mmHg 44%
22:00 +24°C° 0 mm 2 m/s 747 mmHg 47%
23:00 +24°C° 0 mm 2 m/s 747 mmHg 50%

Depois de amanhã, 27 Julho, Terça-feira

Tempo Temperatura Precipitação Vento Pressão Humidade
00:00 +23°C° 0 mm 2 m/s 747 mmHg 53%
01:00 +23°C° 0 mm 2 m/s 747 mmHg 54%
02:00 +21°C° 0 mm 2 m/s 747 mmHg 56%
03:00 +21°C° 0 mm 2 m/s 747 mmHg 57%
04:00 +23°C° 0 mm 2 m/s 747 mmHg 55%
05:00 +24°C° 0 mm 2 m/s 748 mmHg 52%
06:00 +24°C° 0 mm 2 m/s 748 mmHg 50%
07:00 +26°C° 0 mm 2 m/s 748 mmHg 45%
08:00 +28°C° 0 mm 2 m/s 748 mmHg 39%
09:00 +30°C° 0 mm 3 m/s 748 mmHg 34%
10:00 +33°C° 0 mm 4 m/s 748 mmHg 32%
11:00 +34°C° 0 mm 5 m/s 748 mmHg 31%
12:00 +35°C° 0 mm 6 m/s 748 mmHg 29%
13:00 +34°C° 0 mm 6 m/s 747 mmHg 30%
14:00 +34°C° 0 mm 6 m/s 747 mmHg 31%
15:00 +34°C° 0 mm 6 m/s 747 mmHg 31%
16:00 +33°C° 0 mm 5 m/s 747 mmHg 34%
17:00 +32°C° 0 mm 5 m/s 747 mmHg 36%
18:00 +30°C° 0 mm 4 m/s 747 mmHg 38%
19:00 +28°C° 0 mm 3 m/s 747 mmHg 45%
20:00 +26°C° 0 mm 2 m/s 748 mmHg 52%
21:00 +24°C° 0 mm 1 m/s 748 mmHg 59%
22:00 +23°C° 0 mm 1 m/s 748 mmHg 61%
23:00 +23°C° 0 mm 1 m/s 748 mmHg 63%

28 Julho, Quarta-feira

Tempo Temperatura Precipitação Vento Pressão Humidade
00:00 +20°C° 0 mm 0 m/s 748 mmHg 65%
01:00 +22°C° 0 mm 1 m/s 748 mmHg 65%
02:00 +22°C° 0 mm 1 m/s 748 mmHg 66%
03:00 +22°C° 0 mm 1 m/s 747 mmHg 66%
04:00 +22°C° 0 mm 1 m/s 748 mmHg 63%
05:00 +23°C° 0 mm 1 m/s 748 mmHg 60%
06:00 +24°C° 0 mm 2 m/s 748 mmHg 57%
07:00 +26°C° 0 mm 2 m/s 748 mmHg 50%
08:00 +28°C° 0 mm 2 m/s 748 mmHg 42%
09:00 +31°C° 0 mm 2 m/s 748 mmHg 35%
10:00 +32°C° 0 mm 2 m/s 747 mmHg 32%
11:00 +35°C° 0 mm 2 m/s 747 mmHg 28%
12:00 +36°C° 0 mm 3 m/s 747 mmHg 25%
13:00 +36°C° 0 mm 4 m/s 747 mmHg 26%
14:00 +36°C° 0 mm 5 m/s 747 mmHg 26%
15:00 +36°C° 0 mm 5 m/s 747 mmHg 27%
16:00 +34°C° 0 mm 5 m/s 747 mmHg 30%
17:00 +33°C° 0 mm 4 m/s 747 mmHg 34%
18:00 +30°C° 0 mm 3 m/s 747 mmHg 37%
19:00 +28°C° 0 mm 3 m/s 747 mmHg 44%
20:00 +26°C° 0 mm 2 m/s 747 mmHg 51%
21:00 +24°C° 0 mm 1 m/s 748 mmHg 59%
22:00 +24°C° 0 mm 1 m/s 748 mmHg 60%
23:00 +23°C° 0 mm 1 m/s 747 mmHg 61%

29 Julho, Quinta-feira

Tempo Temperatura Precipitação Vento Pressão Humidade
00:00 +21°C° 0 mm 0 m/s 747 mmHg 62%
01:00 +23°C° 0 mm 1 m/s 747 mmHg 62%
02:00 +23°C° 0 mm 1 m/s 747 mmHg 62%
03:00 +22°C° 0 mm 1 m/s 747 mmHg 62%
04:00 +24°C° 0 mm 1 m/s 747 mmHg 57%
05:00 +25°C° 0 mm 1 m/s 747 mmHg 53%
06:00 +26°C° 0 mm 1 m/s 747 mmHg 49%
07:00 +28°C° 0 mm 1 m/s 747 mmHg 43%
08:00 +30°C° 0 mm 2 m/s 747 mmHg 37%
09:00 +34°C° 0 mm 3 m/s 747 mmHg 32%
10:00 +35°C° 0 mm 3 m/s 747 mmHg 29%
11:00 +36°C° 0 mm 4 m/s 747 mmHg 27%
12:00 +37°C° 0 mm 5 m/s 747 mmHg 25%
13:00 +37°C° 0 mm 5 m/s 746 mmHg 26%
14:00 +36°C° 0 mm 5 m/s 746 mmHg 26%
15:00 +36°C° 0 mm 6 m/s 746 mmHg 27%
16:00 +35°C° 0 mm 5 m/s 746 mmHg 31%
17:00 +33°C° 0 mm 4 m/s 746 mmHg 34%
18:00 +31°C° 0 mm 3 m/s 746 mmHg 38%
19:00 +29°C° 0 mm 2 m/s 746 mmHg 46%
20:00 +27°C° 0 mm 1 m/s 746 mmHg 54%
21:00 +24°C° 0 mm 1 m/s 746 mmHg 62%
22:00 +24°C° 0 mm 1 m/s 746 mmHg 63%
23:00 +22°C° 0 mm 0 m/s 746 mmHg 65%

30 Julho, Sexta-feira

Tempo Temperatura Precipitação Vento Pressão Humidade
00:00 +21°C° 0 mm 0 m/s 746 mmHg 66%
01:00 +23°C° 0 mm 1 m/s 746 mmHg 66%
02:00 +22°C° 0 mm 1 m/s 746 mmHg 66%
03:00 +22°C° 0 mm 1 m/s 745 mmHg 66%
04:00 +23°C° 0 mm 1 m/s 745 mmHg 63%
05:00 +24°C° 0 mm 1 m/s 746 mmHg 60%
06:00 +24°C° 0 mm 1 m/s 746 mmHg 57%
07:00 +27°C° 0 mm 1 m/s 746 mmHg 50%
08:00 +29°C° 0 mm 2 m/s 746 mmHg 43%
09:00 +31°C° 0 mm 2 m/s 746 mmHg 37%
10:00 +33°C° 0 mm 3 m/s 745 mmHg 34%
11:00 +35°C° 0 mm 3 m/s 745 mmHg 31%
12:00 +36°C° 0 mm 3 m/s 745 mmHg 28%
13:00 +36°C° 0 mm 4 m/s 744 mmHg 28%
14:00 +37°C° 0 mm 4 m/s 744 mmHg 29%
15:00 +37°C° 0 mm 5 m/s 744 mmHg 29%
16:00 +35°C° 0 mm 5 m/s 744 mmHg 34%
17:00 +34°C° 0 mm 5 m/s 744 mmHg 39%
18:00 +32°C° 0 mm 5 m/s 744 mmHg 44%
19:00 +30°C° 0 mm 5 m/s 745 mmHg 50%
20:00 +28°C° 0 mm 5 m/s 745 mmHg 56%
21:00 +26°C° 0 mm 5 m/s 746 mmHg 62%
22:00 +25°C° 0 mm 5 m/s 746 mmHg 64%
23:00 +23°C° 0 mm 5 m/s 746 mmHg 66%
Mostrar mais

Necessitamos do seu Consentimento

A Meteoprog e os seus Fornecedores de Serviços podem armazenar e aceder a dados pessoais como cookies, identificadores do dispositivo ou outras tecnologias semelhantes existentes no seu dispositivo e processar estes dados para personalizar conteúdos e anúncios, assim como funcionalidades nas redes sociais e análise de tráfego.

  • Armazenar e/ou aceder a informações no seu dispositivo

    Os cookies, identificadores do dispositivo ou outras informações podem ser armazenados ou acedidos no seu dispositivo, para os fins acima indicados.

  • Anúncios e conteúdos personalizados, medição de anúncios e conteúdos, dados sobre o público-alvo e desenvolvimento de produtos

    Os anúncios e os conteúdos podem ser personalizados com base num perfil. Podem ser adicionados dados adicionais para uma maior personalização dos anúncios e dos conteúdos. A eficácia dos anúncios e dos conteúdos pode ser medida. Podem ser obtidas informações sobre o público que visualizou os anúncios e os conteúdos. Estes dados podem ser usados para desenvolver ou melhorar sistemas, softwares ou a experiência do utilizador.

Ao clicar em "Eu concordo”, permitirá o uso de cookies, identificadores do dispositivo e web beacons mencionados ou outras tecnologias semelhantes. As configurações do navegador do seu dispositivo podem ser alteradas.

Para certos fins, podem ser invocados interesses legítimos ao invés de consentimento. Pode ler mais informação sobre este assunto na nossa Política de Privacidade e Cookies.